Time,TemperatureF,DewpointF,PressureIn,WindDirection,WindDirectionDegrees,WindSpeedMPH,WindSpeedGustMPH,Humidity,HourlyPrecipIn,Conditions,Clouds,dailyrainin,SoftwareType,DateUTC
2013-03-23 00:00:00,30.6,3.5,30.20,North,11,0.0,0.0,31,0.00,,,0.00,Wunderground v.1.15,2013-03-23 07:00:00,
2013-03-23 00:07:00,30.2,3.8,30.21,North,352,0.0,0.0,32,0.00,,,0.00,Wunderground v.1.15,2013-03-23 07:07:00,
2013-03-23 00:12:00,29.6,4.0,30.21,North,350,0.0,0.0,33,0.00,,,0.00,Wunderground v.1.15,2013-03-23 07:12:00,
2013-03-23 00:17:00,29.1,4.2,30.21,North,354,0.0,0.0,34,0.00,,,0.00,Wunderground v.1.15,2013-03-23 07:17:00,
2013-03-23 00:23:00,28.7,4.5,30.22,NNW,340,0.0,0.0,35,0.00,,,0.00,Wunderground v.1.15,2013-03-23 07:23:00,
2013-03-23 00:28:00,28.4,4.8,30.22,North,355,0.0,0.0,36,0.00,,,0.00,Wunderground v.1.15,2013-03-23 07:28:00,
2013-03-23 00:34:00,28.4,5.4,30.22,NNE,16,0.0,0.0,37,0.00,,,0.00,Wunderground v.1.15,2013-03-23 07:34:00,
2013-03-23 00:39:00,28.6,5.6,30.22,North,356,0.0,0.0,37,0.00,,,0.00,Wunderground v.1.15,2013-03-23 07:39:00,
2013-03-23 00:45:00,28.9,5.8,30.22,NNE,14,0.0,0.0,37,0.00,,,0.00,Wunderground v.1.15,2013-03-23 07:45:00,
2013-03-23 00:51:00,28.8,5.8,30.22,NNE,18,0.0,0.0,37,0.00,,,0.00,Wunderground v.1.15,2013-03-23 07:51:00,
2013-03-23 00:57:00,28.7,6.3,30.22,North,10,0.0,0.0,38,0.00,,,0.00,Wunderground v.1.15,2013-03-23 07:57:00,
2013-03-23 01:03:00,28.7,6.3,30.22,NNW,342,0.0,0.0,38,0.00,,,0.00,Wunderground v.1.15,2013-03-23 08:03:00,
2013-03-23 01:09:00,28.0,5.6,30.23,NW,314,0.0,0.0,38,0.00,,,0.00,Wunderground v.1.15,2013-03-23 08:09:00,
2013-03-23 01:15:00,27.7,5.9,30.23,NW,305,0.0,0.0,39,0.00,,,0.00,Wunderground v.1.15,2013-03-23 08:15:00,
2013-03-23 01:20:00,27.7,5.9,30.23,NW,305,0.0,0.0,39,0.00,,,0.00,Wunderground v.1.15,2013-03-23 08:20:00,
2013-03-23 01:27:00,27.3,5.6,30.23,SW,216,0.0,0.0,39,0.00,,,0.00,Wunderground v.1.15,2013-03-23 08:27:00,
2013-03-23 01:33:00,26.6,5.5,30.24,South,186,0.0,2.0,40,0.00,,,0.00,Wunderground v.1.15,2013-03-23 08:33:00,
2013-03-23 01:39:00,26.7,6.1,30.25,South,186,1.0,2.0,41,0.00,,,0.00,Wunderground v.1.15,2013-03-23 08:39:00,
2013-03-23 01:45:00,27.1,6.5,30.25,South,186,0.0,1.0,41,0.00,,,0.00,Wunderground v.1.15,2013-03-23 08:45:00,
2013-03-23 01:51:00,27.2,6.6,30.25,WNW,300,0.0,1.0,41,0.00,,,0.00,Wunderground v.1.15,2013-03-23 08:51:00,
2013-03-23 01:57:00,27.3,6.7,30.25,WNW,300,0.0,1.0,41,0.00,,,0.00,Wunderground v.1.15,2013-03-23 08:57:00,
2013-03-23 02:03:00,26.0,5.5,30.25,ENE,73,0.0,0.0,41,0.00,,,0.00,Wunderground v.1.15,2013-03-23 09:03:00,
2013-03-23 02:09:00,25.1,5.2,30.25,NNE,26,0.0,0.0,42,0.00,,,0.00,Wunderground v.1.15,2013-03-23 09:09:00,
2013-03-23 02:15:00,25.1,5.7,30.25,NW,308,0.0,0.0,43,0.00,,,0.00,Wunderground v.1.15,2013-03-23 09:15:00,
2013-03-23 02:22:00,25.3,5.9,30.26,NW,309,0.0,0.0,43,0.00,,,0.00,Wunderground v.1.15,2013-03-23 09:22:00,
2013-03-23 02:27:00,24.9,5.5,30.25,NW,308,0.0,0.0,43,0.00,,,0.00,Wunderground v.1.15,2013-03-23 09:27:00,
2013-03-23 02:33:00,24.7,6.3,30.25,WNW,295,0.0,0.0,45,0.00,,,0.00,Wunderground v.1.15,2013-03-23 09:33:00,
2013-03-23 02:39:00,25.0,5.6,30.25,West,261,0.0,0.0,43,0.00,,,0.00,Wunderground v.1.15,2013-03-23 09:39:00,
2013-03-23 02:44:00,24.9,6.0,30.25,West,260,0.0,0.0,44,0.00,,,0.00,Wunderground v.1.15,2013-03-23 09:44:00,
2013-03-23 02:49:00,24.5,5.2,30.26,SSW,210,0.0,0.0,43,0.00,,,0.00,Wunderground v.1.15,2013-03-23 09:49:00,
2013-03-23 02:55:00,23.3,4.1,30.26,SSW,206,0.0,2.0,43,0.00,,,0.00,Wunderground v.1.15,2013-03-23 09:55:00,
2013-03-23 03:00:00,23.1,4.9,30.26,SW,215,1.0,1.0,45,0.00,,,0.00,Wunderground v.1.15,2013-03-23 10:00:00,
2013-03-23 03:06:00,23.9,6.1,30.26,SW,223,0.0,1.0,46,0.00,,,0.00,Wunderground v.1.15,2013-03-23 10:06:00,
2013-03-23 03:11:00,24.4,6.1,30.26,SW,222,0.0,0.0,45,0.00,,,0.00,Wunderground v.1.15,2013-03-23 10:11:00,
2013-03-23 03:17:00,24.8,6.9,30.26,WSW,248,0.0,1.0,46,0.00,,,0.00,Wunderground v.1.15,2013-03-23 10:17:00,
2013-03-23 03:23:00,25.5,7.1,30.26,West,278,0.0,0.0,45,0.00,,,0.00,Wunderground v.1.15,2013-03-23 10:23:00,
2013-03-23 03:28:00,25.6,6.7,30.26,NW,325,0.0,0.0,44,0.00,,,0.00,Wunderground v.1.15,2013-03-23 10:28:00,
2013-03-23 03:33:00,25.4,6.5,30.26,NW,318,0.0,0.0,44,0.00,,,0.00,Wunderground v.1.15,2013-03-23 10:33:00,
2013-03-23 03:39:00,25.4,6.5,30.26,NW,320,0.0,0.0,44,0.00,,,0.00,Wunderground v.1.15,2013-03-23 10:39:00,
2013-03-23 03:45:00,25.4,6.5,30.26,NW,318,0.0,2.0,44,0.00,,,0.00,Wunderground v.1.15,2013-03-23 10:45:00,
2013-03-23 03:50:00,24.9,3.9,30.26,West,274,0.0,0.0,40,0.00,,,0.00,Wunderground v.1.15,2013-03-23 10:50:00,
2013-03-23 03:56:00,23.3,5.1,30.26,WNW,287,0.0,0.0,45,0.00,,,0.00,Wunderground v.1.15,2013-03-23 10:56:00,
2013-03-23 04:02:00,22.8,4.6,30.26,WNW,285,0.0,0.0,45,0.00,,,0.00,Wunderground v.1.15,2013-03-23 11:02:00,
2013-03-23 04:07:00,23.4,5.2,30.26,WNW,287,1.0,3.0,45,0.00,,,0.00,Wunderground v.1.15,2013-03-23 11:07:00,
2013-03-23 04:13:00,22.9,4.2,30.26,West,276,1.0,1.0,44,0.00,,,0.00,Wunderground v.1.15,2013-03-23 11:13:00,
2013-03-23 04:18:00,22.1,3.5,30.26,West,266,0.0,1.0,44,0.00,,,0.00,Wunderground v.1.15,2013-03-23 11:18:00,
2013-03-23 04:23:00,22.3,4.6,30.26,West,263,1.0,2.0,46,0.00,,,0.00,Wunderground v.1.15,2013-03-23 11:23:00,
2013-03-23 04:29:00,22.7,4.5,30.26,West,281,2.0,3.0,45,0.00,,,0.00,Wunderground v.1.15,2013-03-23 11:29:00,
2013-03-23 04:35:00,23.4,5.6,30.26,WNW,288,1.0,2.0,46,0.00,,,0.00,Wunderground v.1.15,2013-03-23 11:35:00,
2013-03-23 04:41:00,24.5,5.7,30.26,West,274,0.0,0.0,44,0.00,,,0.00,Wunderground v.1.15,2013-03-23 11:41:00,
2013-03-23 04:47:00,25.2,6.8,30.27,WNW,302,0.0,0.0,45,0.00,,,0.00,Wunderground v.1.15,2013-03-23 11:47:00,
2013-03-23 04:53:00,25.9,6.4,30.27,NW,310,0.0,0.0,43,0.00,,,0.00,Wunderground v.1.15,2013-03-23 11:53:00,
2013-03-23 04:59:00,25.5,6.1,30.27,NW,307,0.0,0.0,43,0.00,,,0.00,Wunderground v.1.15,2013-03-23 11:59:00,
2013-03-23 05:04:00,25.5,6.1,30.27,NW,305,0.0,2.0,43,0.00,,,0.00,Wunderground v.1.15,2013-03-23 12:04:00,
2013-03-23 05:09:00,25.3,5.9,30.28,NW,312,0.0,2.0,43,0.00,,,0.00,Wunderground v.1.15,2013-03-23 12:09:00,
2013-03-23 05:14:00,25.1,5.7,30.27,NW,306,1.0,4.0,43,0.00,,,0.00,Wunderground v.1.15,2013-03-23 12:14:00,
2013-03-23 05:19:00,25.1,5.7,30.27,NW,305,1.0,4.0,43,0.00,,,0.00,Wunderground v.1.15,2013-03-23 12:19:00,
2013-03-23 05:25:00,25.1,5.2,30.27,West,272,2.0,4.0,42,0.00,,,0.00,Wunderground v.1.15,2013-03-23 12:25:00,
2013-03-23 05:30:00,24.0,4.2,30.27,West,274,2.0,3.0,42,0.00,,,0.00,Wunderground v.1.15,2013-03-23 12:30:00,
2013-03-23 05:36:00,22.9,3.7,30.28,West,261,2.0,3.0,43,0.00,,,0.00,Wunderground v.1.15,2013-03-23 12:36:00,
2013-03-23 05:41:00,22.9,3.7,30.28,West,261,3.0,3.0,43,0.00,,,0.00,Wunderground v.1.15,2013-03-23 12:41:00,
2013-03-23 05:47:00,-999.9,-99.9,30.28,North,32767,-999.0,3.0,255,-99.99,,,0.00,Wunderground v.1.15,2013-03-23 12:47:00,
2013-03-23 05:53:00,-999.9,-99.9,30.28,North,32767,-999.0,0.0,255,-99.99,,,0.00,Wunderground v.1.15,2013-03-23 12:53:00,
2013-03-23 05:59:00,-999.9,-99.9,30.28,North,32767,-999.0,0.0,255,-99.99,,,0.00,Wunderground v.1.15,2013-03-23 12:59:00,
2013-03-23 06:04:00,-999.9,-99.9,30.28,North,32767,-999.0,0.0,255,-99.99,,,0.00,Wunderground v.1.15,2013-03-23 13:04:00,
2013-03-23 06:09:00,-999.9,-99.9,30.28,North,32767,-999.0,0.0,255,-99.99,,,0.00,Wunderground v.1.15,2013-03-23 13:09:00,
2013-03-23 06:15:00,-999.9,-99.9,30.28,North,32767,-999.0,0.0,255,-99.99,,,0.00,Wunderground v.1.15,2013-03-23 13:15:00,
2013-03-23 06:20:00,-999.9,-99.9,30.28,North,32767,-999.0,0.0,255,-99.99,,,0.00,Wunderground v.1.15,2013-03-23 13:20:00,
2013-03-23 06:25:00,-999.9,-99.9,30.28,North,32767,-999.0,0.0,255,-99.99,,,0.00,Wunderground v.1.15,2013-03-23 13:25:00,
2013-03-23 06:30:00,-999.9,-99.9,30.28,North,32767,-999.0,0.0,255,-99.99,,,0.00,Wunderground v.1.15,2013-03-23 13:30:00,
2013-03-23 06:36:00,-999.9,-99.9,30.28,North,32767,-999.0,0.0,255,-99.99,,,0.00,Wunderground v.1.15,2013-03-23 13:36:00,
2013-03-23 06:42:00,-999.9,-99.9,30.28,North,32767,-999.0,0.0,255,-99.99,,,0.00,Wunderground v.1.15,2013-03-23 13:42:00,
2013-03-23 06:48:00,-999.9,-99.9,30.28,North,32767,-999.0,0.0,255,-99.99,,,0.00,Wunderground v.1.15,2013-03-23 13:48:00,
2013-03-23 06:54:00,-999.9,-99.9,30.28,North,32767,-999.0,0.0,255,-99.99,,,0.00,Wunderground v.1.15,2013-03-23 13:54:00,
2013-03-23 06:59:00,-999.9,-99.9,30.29,North,32767,-999.0,0.0,255,-99.99,,,0.00,Wunderground v.1.15,2013-03-23 13:59:00,
2013-03-23 07:05:00,-999.9,-99.9,30.29,North,32767,-999.0,0.0,255,-99.99,,,0.00,Wunderground v.1.15,2013-03-23 14:05:00,
2013-03-23 07:12:00,-999.9,-99.9,30.29,North,32767,-999.0,0.0,255,-99.99,,,0.00,Wunderground v.1.15,2013-03-23 14:12:00,
2013-03-23 07:18:00,-999.9,-99.9,30.29,North,32767,-999.0,0.0,255,-99.99,,,0.00,Wunderground v.1.15,2013-03-23 14:18:00,
2013-03-23 07:24:00,-999.9,-99.9,30.30,North,32767,-999.0,0.0,255,-99.99,,,0.00,Wunderground v.1.15,2013-03-23 14:24:00,
2013-03-23 07:29:00,-999.9,-99.9,30.29,North,32767,-999.0,0.0,255,-99.99,,,0.00,Wunderground v.1.15,2013-03-23 14:29:00,
2013-03-23 07:35:00,-999.9,-99.9,30.29,North,32767,-999.0,0.0,255,-99.99,,,0.00,Wunderground v.1.15,2013-03-23 14:35:00,
2013-03-23 07:42:00,21.5,4.8,30.29,WSW,253,2.0,2.0,48,0.00,,,0.00,Wunderground v.1.15,2013-03-23 14:42:00,
2013-03-23 07:47:00,22.6,5.8,30.30,West,268,2.0,3.0,48,0.00,,,0.00,Wunderground v.1.15,2013-03-23 14:47:00,
2013-03-23 07:52:00,23.5,6.2,30.30,West,263,2.0,2.0,47,0.00,,,0.00,Wunderground v.1.15,2013-03-23 14:52:00,
2013-03-23 07:57:00,24.4,6.6,30.30,West,259,1.0,2.0,46,0.00,,,0.00,Wunderground v.1.15,2013-03-23 14:57:00,
2013-03-23 08:02:00,25.3,6.9,30.31,West,262,1.0,2.0,45,0.00,,,0.00,Wunderground v.1.15,2013-03-23 15:02:00,
2013-03-23 08:07:00,26.1,7.1,30.30,WSW,252,1.0,2.0,44,0.00,,,0.00,Wunderground v.1.15,2013-03-23 15:07:00,
2013-03-23 08:13:00,27.1,7.5,30.31,WSW,254,1.0,1.0,43,0.00,,,0.00,Wunderground v.1.15,2013-03-23 15:13:00,
2013-03-23 08:19:00,28.1,7.4,30.31,West,259,1.0,1.0,41,0.00,,,0.00,Wunderground v.1.15,2013-03-23 15:19:00,
2013-03-23 08:25:00,29.0,8.2,30.31,WSW,256,1.0,2.0,41,0.00,,,0.00,Wunderground v.1.15,2013-03-23 15:25:00,
2013-03-23 08:31:00,30.0,8.0,30.31,West,266,1.0,1.0,39,0.00,,,0.00,Wunderground v.1.15,2013-03-23 15:31:00,
2013-03-23 08:37:00,30.6,8.0,30.31,WSW,250,1.0,1.0,38,0.00,,,0.00,Wunderground v.1.15,2013-03-23 15:37:00,
2013-03-23 08:42:00,31.2,7.9,30.31,WSW,250,1.0,1.0,37,0.00,,,0.00,Wunderground v.1.15,2013-03-23 15:42:00,
2013-03-23 08:47:00,31.4,8.1,30.31,WSW,250,0.0,1.0,37,0.00,,,0.00,Wunderground v.1.15,2013-03-23 15:47:00,
2013-03-23 08:53:00,32.3,8.3,30.31,WSW,251,0.0,0.0,36,0.00,,,0.00,Wunderground v.1.15,2013-03-23 15:53:00,
2013-03-23 08:58:00,32.7,8.6,30.31,West,262,0.0,0.0,36,0.00,,,0.00,Wunderground v.1.15,2013-03-23 15:58:00,
2013-03-23 09:04:00,34.1,8.6,30.31,East,79,0.0,0.0,34,0.00,,,0.00,Wunderground v.1.15,2013-03-23 16:04:00,
2013-03-23 09:09:00,33.1,7.7,30.31,NNW,339,0.0,0.0,34,0.00,,,0.00,Wunderground v.1.15,2013-03-23 16:09:00,
2013-03-23 09:15:00,32.5,7.8,30.32,East,83,0.0,0.0,35,0.00,,,0.00,Wunderground v.1.15,2013-03-23 16:15:00,
2013-03-23 09:20:00,32.6,7.9,30.31,ENE,60,0.0,0.0,35,0.00,,,0.00,Wunderground v.1.15,2013-03-23 16:20:00,
2013-03-23 09:27:00,32.1,8.1,30.31,NE,34,0.0,0.0,36,0.00,,,0.00,Wunderground v.1.15,2013-03-23 16:27:00,
2013-03-23 09:33:00,32.2,8.2,30.31,ENE,73,0.0,0.0,36,0.00,,,0.00,Wunderground v.1.15,2013-03-23 16:33:00,
2013-03-23 09:39:00,32.3,8.3,30.32,ENE,77,0.0,0.0,36,0.00,,,0.00,Wunderground v.1.15,2013-03-23 16:39:00,
2013-03-23 09:45:00,32.8,8.1,30.32,NNE,17,0.0,0.0,35,0.00,,,0.00,Wunderground v.1.15,2013-03-23 16:45:00,
2013-03-23 09:50:00,32.9,8.2,30.32,NNE,14,0.0,0.0,35,0.00,,,0.00,Wunderground v.1.15,2013-03-23 16:50:00,
2013-03-23 09:57:00,34.2,8.7,30.32,NE,49,0.0,0.0,34,0.00,,,0.00,Wunderground v.1.15,2013-03-23 16:57:00,
2013-03-23 10:03:00,33.9,7.8,30.31,East,84,0.0,6.0,33,0.00,,,0.00,Wunderground v.1.15,2013-03-23 17:03:00,
2013-03-23 10:08:00,33.8,8.4,30.31,NNE,13,0.0,6.0,34,0.00,,,0.00,Wunderground v.1.15,2013-03-23 17:08:00,
2013-03-23 10:14:00,34.2,8.7,30.31,ESE,115,0.0,0.0,34,0.00,,,0.00,Wunderground v.1.15,2013-03-23 17:14:00,
2013-03-23 10:19:00,34.6,7.7,30.31,ENE,76,0.0,0.0,32,0.00,,,0.00,Wunderground v.1.15,2013-03-23 17:19:00,
2013-03-23 10:25:00,34.4,7.5,30.31,South,183,0.0,0.0,32,0.00,,,0.00,Wunderground v.1.15,2013-03-23 17:25:00,
2013-03-23 10:31:00,34.5,7.6,30.31,ENE,65,0.0,0.0,32,0.00,,,0.00,Wunderground v.1.15,2013-03-23 17:31:00,
2013-03-23 10:36:00,34.7,7.8,30.30,NNE,18,0.0,0.0,32,0.00,,,0.00,Wunderground v.1.15,2013-03-23 17:36:00,
2013-03-23 10:41:00,35.3,7.6,30.31,NE,52,0.0,0.0,31,0.00,,,0.00,Wunderground v.1.15,2013-03-23 17:41:00,
2013-03-23 10:47:00,35.1,8.2,30.31,NE,56,0.0,0.0,32,0.00,,,0.00,Wunderground v.1.15,2013-03-23 17:47:00,
2013-03-23 10:53:00,35.3,8.3,30.31,ESE,110,0.0,0.0,32,0.00,,,0.00,Wunderground v.1.15,2013-03-23 17:53:00,
2013-03-23 10:59:00,36.1,8.3,30.30,NE,35,0.0,0.0,31,0.00,,,0.00,Wunderground v.1.15,2013-03-23 17:59:00,
2013-03-23 11:05:00,35.7,8.0,30.30,NNE,23,0.0,0.0,31,0.00,,,0.00,Wunderground v.1.15,2013-03-23 18:05:00,
2013-03-23 11:11:00,36.1,8.3,30.30,NNE,13,0.0,0.0,31,0.00,,,0.00,Wunderground v.1.15,2013-03-23 18:11:00,
2013-03-23 11:17:00,36.2,7.7,30.30,ENE,73,0.0,0.0,30,0.00,,,0.00,Wunderground v.1.15,2013-03-23 18:17:00,
2013-03-23 11:23:00,36.3,8.5,30.30,NNE,32,0.0,0.0,31,0.00,,,0.00,Wunderground v.1.15,2013-03-23 18:23:00,
2013-03-23 11:29:00,36.6,8.0,30.30,NE,55,0.0,0.0,30,0.00,,,0.00,Wunderground v.1.15,2013-03-23 18:29:00,
2013-03-23 11:35:00,37.3,7.9,30.30,ENE,62,0.0,0.0,29,0.00,,,0.00,Wunderground v.1.15,2013-03-23 18:35:00,
2013-03-23 11:40:00,37.4,8.0,30.29,WSW,248,0.0,0.0,29,0.00,,,0.00,Wunderground v.1.15,2013-03-23 18:40:00,
2013-03-23 11:45:00,37.9,8.4,30.28,NNW,340,0.0,0.0,29,0.00,,,0.00,Wunderground v.1.15,2013-03-23 18:45:00,
2013-03-23 11:51:00,38.5,8.2,30.28,SSE,160,0.0,0.0,28,0.00,,,0.00,Wunderground v.1.15,2013-03-23 18:51:00,
2013-03-23 11:56:00,38.4,8.1,30.27,SSW,211,0.0,0.0,28,0.00,,,0.00,Wunderground v.1.15,2013-03-23 18:56:00,
2013-03-23 12:02:00,38.5,8.2,30.27,WNW,297,0.0,0.0,28,0.00,,,0.00,Wunderground v.1.15,2013-03-23 19:02:00,
2013-03-23 12:07:00,38.3,8.0,30.27,WNW,284,0.0,0.0,28,0.00,,,0.00,Wunderground v.1.15,2013-03-23 19:07:00,
2013-03-23 12:12:00,38.4,8.1,30.27,NW,320,0.0,0.0,28,0.00,,,0.00,Wunderground v.1.15,2013-03-23 19:12:00,
2013-03-23 12:18:00,38.8,8.4,30.26,NW,326,0.0,0.0,28,0.00,,,0.00,Wunderground v.1.15,2013-03-23 19:18:00,
2013-03-23 12:24:00,39.1,7.9,30.26,North,353,0.0,0.0,27,0.00,,,0.00,Wunderground v.1.15,2013-03-23 19:24:00,
2013-03-23 12:30:00,40.0,8.7,30.26,ESE,119,0.0,0.0,27,0.00,,,0.00,Wunderground v.1.15,2013-03-23 19:30:00,
2013-03-23 12:35:00,40.4,8.2,30.26,SW,233,0.0,0.0,26,0.00,,,0.00,Wunderground v.1.15,2013-03-23 19:35:00,
2013-03-23 12:41:00,40.5,7.4,30.26,NE,53,0.0,0.0,25,0.00,,,0.00,Wunderground v.1.15,2013-03-23 19:41:00,
2013-03-23 12:46:00,40.2,8.0,30.26,NNE,32,0.0,0.0,26,0.00,,,0.00,Wunderground v.1.15,2013-03-23 19:46:00,
2013-03-23 12:52:00,40.3,8.1,30.25,NNW,330,0.0,0.0,26,0.00,,,0.00,Wunderground v.1.15,2013-03-23 19:52:00,
2013-03-23 12:57:00,40.6,7.5,30.24,NE,51,0.0,0.0,25,0.00,,,0.00,Wunderground v.1.15,2013-03-23 19:57:00,
2013-03-23 13:02:00,40.5,8.2,30.24,WSW,237,0.0,0.0,26,0.00,,,0.00,Wunderground v.1.15,2013-03-23 20:02:00,
2013-03-23 13:08:00,41.0,7.8,30.23,NE,36,0.0,0.0,25,0.00,,,0.00,Wunderground v.1.15,2013-03-23 20:08:00,
2013-03-23 13:14:00,41.3,8.1,30.23,ENE,74,0.0,0.0,25,0.00,,,0.00,Wunderground v.1.15,2013-03-23 20:14:00,
2013-03-23 13:20:00,41.5,8.2,30.22,East,101,0.0,0.0,25,0.00,,,0.00,Wunderground v.1.15,2013-03-23 20:20:00,
2013-03-23 13:27:00,41.3,8.1,30.23,WSW,257,0.0,0.0,25,0.00,,,0.00,Wunderground v.1.15,2013-03-23 20:27:00,
2013-03-23 13:33:00,41.8,7.6,30.22,ESE,110,0.0,0.0,24,0.00,,,0.00,Wunderground v.1.15,2013-03-23 20:33:00,
2013-03-23 13:39:00,42.2,7.9,30.21,SE,135,0.0,0.0,24,0.00,,,0.00,Wunderground v.1.15,2013-03-23 20:39:00,
2013-03-23 13:45:00,42.3,7.1,30.21,East,98,0.0,0.0,23,0.00,,,0.00,Wunderground v.1.15,2013-03-23 20:45:00,
2013-03-23 13:51:00,42.5,7.2,30.20,ENE,78,0.0,0.0,23,0.00,,,0.00,Wunderground v.1.15,2013-03-23 20:51:00,
2013-03-23 13:57:00,43.2,7.8,30.20,NNW,345,0.0,0.0,23,0.00,,,0.00,Wunderground v.1.15,2013-03-23 20:57:00,
2013-03-23 14:03:00,44.0,8.5,30.20,East,84,0.0,0.0,23,0.00,,,0.00,Wunderground v.1.15,2013-03-23 21:03:00,
2013-03-23 14:08:00,43.7,7.3,30.20,ENE,74,0.0,0.0,22,0.00,,,0.00,Wunderground v.1.15,2013-03-23 21:08:00,
2013-03-23 14:14:00,43.8,8.3,30.19,East,83,0.0,0.0,23,0.00,,,0.00,Wunderground v.1.15,2013-03-23 21:14:00,
2013-03-23 14:19:00,43.9,7.4,30.19,NNE,28,0.0,0.0,22,0.00,,,0.00,Wunderground v.1.15,2013-03-23 21:19:00,
2013-03-23 14:25:00,44.3,7.8,30.19,WSW,257,0.0,0.0,22,0.00,,,0.00,Wunderground v.1.15,2013-03-23 21:25:00,
2013-03-23 14:30:00,44.3,7.8,30.18,NNE,20,0.0,0.0,22,0.00,,,0.00,Wunderground v.1.15,2013-03-23 21:30:00,
2013-03-23 14:36:00,44.5,6.9,30.18,West,264,0.0,0.0,21,0.00,,,0.00,Wunderground v.1.15,2013-03-23 21:36:00,
2013-03-23 14:43:00,44.7,7.1,30.18,SSW,207,0.0,0.0,21,0.00,,,0.00,Wunderground v.1.15,2013-03-23 21:43:00,
2013-03-23 14:48:00,44.7,7.1,30.17,NNE,31,0.0,0.0,21,0.00,,,0.00,Wunderground v.1.15,2013-03-23 21:48:00,
2013-03-23 14:54:00,45.2,6.4,30.17,NNW,333,0.0,0.0,20,0.00,,,0.00,Wunderground v.1.15,2013-03-23 21:54:00,
2013-03-23 15:00:00,45.4,6.6,30.17,NE,46,0.0,0.0,20,0.00,,,0.00,Wunderground v.1.15,2013-03-23 22:00:00,
2013-03-23 15:06:00,45.7,6.8,30.16,ENE,60,0.0,0.0,20,0.00,,,0.00,Wunderground v.1.15,2013-03-23 22:06:00,
2013-03-23 15:11:00,45.5,6.7,30.16,WNW,302,0.0,0.0,20,0.00,,,0.00,Wunderground v.1.15,2013-03-23 22:11:00,
2013-03-23 15:16:00,45.8,5.8,30.16,NW,325,0.0,0.0,19,0.00,,,0.00,Wunderground v.1.15,2013-03-23 22:16:00,
2013-03-23 15:21:00,46.1,6.0,30.16,NNW,347,0.0,0.0,19,0.00,,,0.00,Wunderground v.1.15,2013-03-23 22:21:00,
2013-03-23 15:27:00,46.3,6.2,30.16,WNW,297,0.0,0.0,19,0.00,,,0.00,Wunderground v.1.15,2013-03-23 22:27:00,
2013-03-23 15:32:00,46.5,6.4,30.15,North,357,0.0,0.0,19,0.00,,,0.00,Wunderground v.1.15,2013-03-23 22:32:00,
2013-03-23 15:38:00,46.6,6.5,30.15,NNE,17,0.0,0.0,19,0.00,,,0.00,Wunderground v.1.15,2013-03-23 22:38:00,
2013-03-23 15:44:00,46.6,5.3,30.15,North,3,0.0,0.0,18,0.00,,,0.00,Wunderground v.1.15,2013-03-23 22:44:00,
2013-03-23 15:49:00,46.4,5.1,30.15,NW,312,0.0,0.0,18,0.00,,,0.00,Wunderground v.1.15,2013-03-23 22:49:00,
2013-03-23 15:54:00,46.8,5.4,30.15,NE,35,0.0,0.0,18,0.00,,,0.00,Wunderground v.1.15,2013-03-23 22:54:00,
2013-03-23 16:00:00,47.1,5.7,30.15,SE,143,0.0,0.0,18,0.00,,,0.00,Wunderground v.1.15,2013-03-23 23:00:00,
2013-03-23 16:06:00,47.7,6.2,30.14,NNE,13,0.0,0.0,18,0.00,,,0.00,Wunderground v.1.15,2013-03-23 23:06:00,
2013-03-23 16:11:00,47.6,6.1,30.14,North,1,0.0,0.0,18,0.00,,,0.00,Wunderground v.1.15,2013-03-23 23:11:00,
2013-03-23 16:16:00,47.7,6.2,30.14,NNW,343,0.0,0.0,18,0.00,,,0.00,Wunderground v.1.15,2013-03-23 23:16:00,
2013-03-23 16:22:00,47.6,6.1,30.14,West,265,0.0,0.0,18,0.00,,,0.00,Wunderground v.1.15,2013-03-23 23:22:00,
2013-03-23 16:28:00,48.1,6.5,30.14,North,7,0.0,0.0,18,0.00,,,0.00,Wunderground v.1.15,2013-03-23 23:28:00,
2013-03-23 16:34:00,47.9,6.4,30.13,NNE,21,0.0,0.0,18,0.00,,,0.00,Wunderground v.1.15,2013-03-23 23:34:00,
2013-03-23 16:39:00,48.1,5.3,30.13,East,82,0.0,0.0,17,0.00,,,0.00,Wunderground v.1.15,2013-03-23 23:39:00,
2013-03-23 16:45:00,47.9,5.1,30.13,SE,132,0.0,0.0,17,0.00,,,0.00,Wunderground v.1.15,2013-03-23 23:45:00,
2013-03-23 16:51:00,47.8,5.0,30.13,NNE,30,0.0,0.0,17,0.00,,,0.00,Wunderground v.1.15,2013-03-23 23:51:00,
2013-03-23 16:57:00,48.0,5.2,30.13,NE,52,0.0,0.0,17,0.00,,,0.00,Wunderground v.1.15,2013-03-23 23:57:00,
2013-03-23 17:03:00,47.9,5.1,30.13,ESE,108,0.0,0.0,17,0.00,,,0.00,Wunderground v.1.15,2013-03-24 00:03:00,
2013-03-23 17:09:00,48.1,5.3,30.12,East,87,0.0,0.0,17,0.00,,,0.00,Wunderground v.1.15,2013-03-24 00:09:00,
2013-03-23 17:14:00,48.0,5.2,30.12,East,89,0.0,0.0,17,0.00,,,0.00,Wunderground v.1.15,2013-03-24 00:14:00,
2013-03-23 17:19:00,47.9,5.1,30.12,NNE,18,0.0,0.0,17,0.00,,,0.00,Wunderground v.1.15,2013-03-24 00:19:00,
2013-03-23 17:25:00,48.1,5.3,30.12,ENE,63,0.0,0.0,17,0.00,,,0.00,Wunderground v.1.15,2013-03-24 00:25:00,
2013-03-23 17:30:00,48.3,5.4,30.12,ENE,75,0.0,0.0,17,0.00,,,0.00,Wunderground v.1.15,2013-03-24 00:30:00,
2013-03-23 17:35:00,48.3,5.4,30.12,NE,38,0.0,0.0,17,0.00,,,0.00,Wunderground v.1.15,2013-03-24 00:35:00,
2013-03-23 17:40:00,48.4,5.5,30.12,ENE,72,0.0,0.0,17,0.00,,,0.00,Wunderground v.1.15,2013-03-24 00:40:00,
2013-03-23 17:46:00,48.2,5.3,30.13,NE,56,0.0,0.0,17,0.00,,,0.00,Wunderground v.1.15,2013-03-24 00:46:00,
2013-03-23 17:52:00,48.2,5.3,30.13,ENE,59,0.0,0.0,17,0.00,,,0.00,Wunderground v.1.15,2013-03-24 00:52:00,
2013-03-23 17:58:00,48.1,5.3,30.13,East,96,0.0,0.0,17,0.00,,,0.00,Wunderground v.1.15,2013-03-24 00:58:00,
2013-03-23 18:04:00,48.4,4.2,30.13,NE,36,0.0,0.0,16,0.00,,,0.00,Wunderground v.1.15,2013-03-24 01:04:00,
2013-03-23 18:10:00,48.4,4.2,30.13,NNE,27,0.0,0.0,16,0.00,,,0.00,Wunderground v.1.15,2013-03-24 01:10:00,
2013-03-23 18:16:00,48.2,4.0,30.13,NE,47,0.0,0.0,16,0.00,,,0.00,Wunderground v.1.15,2013-03-24 01:16:00,
2013-03-23 18:22:00,48.3,4.1,30.13,ESE,108,0.0,0.0,16,0.00,,,0.00,Wunderground v.1.15,2013-03-24 01:22:00,
2013-03-23 18:27:00,48.3,5.4,30.13,East,80,0.0,0.0,17,0.00,,,0.00,Wunderground v.1.15,2013-03-24 01:27:00,
2013-03-23 18:33:00,48.1,5.3,30.13,ENE,75,0.0,0.0,17,0.00,,,0.00,Wunderground v.1.15,2013-03-24 01:33:00,
2013-03-23 18:39:00,47.9,5.1,30.13,ENE,63,0.0,0.0,17,0.00,,,0.00,Wunderground v.1.15,2013-03-24 01:39:00,
2013-03-23 18:45:00,47.8,3.7,30.13,East,84,0.0,0.0,16,0.00,,,0.00,Wunderground v.1.15,2013-03-24 01:45:00,
2013-03-23 18:51:00,47.3,4.6,30.13,ENE,63,0.0,0.0,17,0.00,,,0.00,Wunderground v.1.15,2013-03-24 01:51:00,
2013-03-23 18:56:00,47.0,4.4,30.13,NE,46,0.0,0.0,17,0.00,,,0.00,Wunderground v.1.15,2013-03-24 01:56:00,
2013-03-23 19:02:00,46.5,3.9,30.13,ENE,63,0.0,0.0,17,0.00,,,0.00,Wunderground v.1.15,2013-03-24 02:02:00,
2013-03-23 19:08:00,46.0,3.5,30.14,ENE,63,0.0,0.0,17,0.00,,,0.00,Wunderground v.1.15,2013-03-24 02:08:00,
2013-03-23 19:13:00,45.5,3.1,30.14,NE,48,0.0,0.0,17,0.00,,,0.00,Wunderground v.1.15,2013-03-24 02:13:00,
2013-03-23 19:19:00,44.8,2.6,30.14,ENE,59,0.0,0.0,17,0.00,,,0.00,Wunderground v.1.15,2013-03-24 02:19:00,
2013-03-23 19:25:00,44.4,3.5,30.14,NE,41,0.0,0.0,18,0.00,,,0.00,Wunderground v.1.15,2013-03-24 02:25:00,
2013-03-23 19:30:00,43.9,3.0,30.15,NE,41,0.0,0.0,18,0.00,,,0.00,Wunderground v.1.15,2013-03-24 02:30:00,
2013-03-23 19:36:00,43.6,2.8,30.15,NE,41,0.0,0.0,18,0.00,,,0.00,Wunderground v.1.15,2013-03-24 02:36:00,
2013-03-23 19:41:00,43.3,3.7,30.15,NE,41,0.0,0.0,19,0.00,,,0.00,Wunderground v.1.15,2013-03-24 02:41:00,
2013-03-23 19:47:00,43.3,3.7,30.15,ENE,59,0.0,0.0,19,0.00,,,0.00,Wunderground v.1.15,2013-03-24 02:47:00,
2013-03-23 19:52:00,43.1,3.6,30.15,ENE,59,0.0,0.0,19,0.00,,,0.00,Wunderground v.1.15,2013-03-24 02:52:00,
2013-03-23 19:58:00,42.7,3.2,30.15,ENE,60,0.0,0.0,19,0.00,,,0.00,Wunderground v.1.15,2013-03-24 02:58:00,
2013-03-23 20:03:00,42.4,3.0,30.15,ENE,76,0.0,1.0,19,0.00,,,0.00,Wunderground v.1.15,2013-03-24 03:03:00,
2013-03-23 20:09:00,41.9,2.6,30.15,ENE,76,0.0,1.0,19,0.00,,,0.00,Wunderground v.1.15,2013-03-24 03:09:00,
2013-03-23 20:15:00,41.3,3.2,30.15,ENE,76,0.0,0.0,20,0.00,,,0.00,Wunderground v.1.15,2013-03-24 03:15:00,
2013-03-23 20:20:00,41.6,3.4,30.15,ENE,76,0.0,0.0,20,0.00,,,0.00,Wunderground v.1.15,2013-03-24 03:20:00,
2013-03-23 20:26:00,41.7,3.5,30.16,ENE,76,0.0,1.0,20,0.00,,,0.00,Wunderground v.1.15,2013-03-24 03:26:00,
2013-03-23 20:31:00,41.5,3.3,30.16,ENE,76,0.0,0.0,20,0.00,,,0.00,Wunderground v.1.15,2013-03-24 03:31:00,
2013-03-23 20:36:00,41.4,3.3,30.16,ENE,76,0.0,0.0,20,0.00,,,0.00,Wunderground v.1.15,2013-03-24 03:36:00,
2013-03-23 20:41:00,41.4,3.3,30.16,ENE,76,0.0,0.0,20,0.00,,,0.00,Wunderground v.1.15,2013-03-24 03:41:00,
2013-03-23 20:47:00,41.6,3.4,30.16,East,86,0.0,0.0,20,0.00,,,0.00,Wunderground v.1.15,2013-03-24 03:47:00,
2013-03-23 20:53:00,41.7,2.4,30.16,East,98,0.0,0.0,19,0.00,,,0.00,Wunderground v.1.15,2013-03-24 03:53:00,
2013-03-23 20:59:00,41.4,2.1,30.16,East,98,0.0,0.0,19,0.00,,,0.00,Wunderground v.1.15,2013-03-24 03:59:00,
2013-03-23 21:00:00,41.4,2.1,30.16,East,98,0.0,0.0,19,0.00,,,0.00,Wunderground v.1.15,2013-03-24 04:00:00,
2013-03-23 21:01:00,41.3,2.1,30.16,East,98,0.0,0.0,19,0.00,,,0.00,Wunderground v.1.15,2013-03-24 04:01:00,
2013-03-23 21:04:00,41.3,2.1,30.17,ESE,114,0.0,0.0,19,0.00,,,0.00,Wunderground v.1.15,2013-03-24 04:04:00,
2013-03-23 21:08:00,41.0,2.9,30.17,SE,136,0.0,0.0,20,0.00,,,0.00,Wunderground v.1.15,2013-03-24 04:08:00,
2013-03-23 21:13:00,40.7,2.7,30.17,South,177,0.0,0.0,20,0.00,,,0.00,Wunderground v.1.15,2013-03-24 04:13:00,
2013-03-23 21:18:00,40.2,2.2,30.17,SSW,201,0.0,0.0,20,0.00,,,0.00,Wunderground v.1.15,2013-03-24 04:18:00,
2013-03-23 21:24:00,39.8,3.0,30.18,SSW,202,0.0,0.0,21,0.00,,,0.00,Wunderground v.1.15,2013-03-24 04:24:00,
2013-03-23 21:29:00,39.5,2.7,30.17,SSW,205,0.0,0.0,21,0.00,,,0.00,Wunderground v.1.15,2013-03-24 04:29:00,
2013-03-23 21:35:00,39.3,3.6,30.18,SSW,207,0.0,0.0,22,0.00,,,0.00,Wunderground v.1.15,2013-03-24 04:35:00,
2013-03-23 21:41:00,39.2,3.5,30.17,SSW,207,0.0,0.0,22,0.00,,,0.00,Wunderground v.1.15,2013-03-24 04:41:00,
2013-03-23 21:46:00,38.9,3.2,30.18,SW,216,0.0,0.0,22,0.00,,,0.00,Wunderground v.1.15,2013-03-24 04:46:00,
2013-03-23 21:51:00,38.9,3.2,30.18,SW,215,0.0,0.0,22,0.00,,,0.00,Wunderground v.1.15,2013-03-24 04:51:00,
2013-03-23 21:57:00,38.9,3.2,30.18,SW,217,0.0,0.0,22,0.00,,,0.00,Wunderground v.1.15,2013-03-24 04:57:00,
2013-03-23 22:02:00,39.3,3.6,30.18,SW,221,0.0,0.0,22,0.00,,,0.00,Wunderground v.1.15,2013-03-24 05:02:00,
2013-03-23 22:08:00,38.8,3.1,30.18,WSW,249,0.0,0.0,22,0.00,,,0.00,Wunderground v.1.15,2013-03-24 05:08:00,
2013-03-23 22:14:00,39.1,3.4,30.18,WSW,250,0.0,0.0,22,0.00,,,0.00,Wunderground v.1.15,2013-03-24 05:14:00,
2013-03-23 22:19:00,39.7,2.9,30.18,WSW,250,0.0,0.0,21,0.00,,,0.00,Wunderground v.1.15,2013-03-24 05:19:00,
2013-03-23 22:25:00,39.6,2.8,30.18,WSW,251,0.0,0.0,21,0.00,,,0.00,Wunderground v.1.15,2013-03-24 05:25:00,
2013-03-23 22:31:00,39.1,2.4,30.18,SW,227,0.0,0.0,21,0.00,,,0.00,Wunderground v.1.15,2013-03-24 05:31:00,
2013-03-23 22:36:00,37.7,1.2,30.18,SW,224,0.0,0.0,21,0.00,,,0.00,Wunderground v.1.15,2013-03-24 05:36:00,
2013-03-23 22:43:00,36.6,2.2,30.19,SW,230,0.0,0.0,23,0.00,,,0.00,Wunderground v.1.15,2013-03-24 05:43:00,
2013-03-23 22:49:00,36.5,2.1,30.19,WSW,250,0.0,0.0,23,0.00,,,0.00,Wunderground v.1.15,2013-03-24 05:49:00,
2013-03-23 22:55:00,35.9,1.6,30.19,SW,224,0.0,0.0,23,0.00,,,0.00,Wunderground v.1.15,2013-03-24 05:55:00,
2013-03-23 23:00:00,35.8,1.5,30.19,SW,225,0.0,0.0,23,0.00,,,0.00,Wunderground v.1.15,2013-03-24 06:00:00,
2013-03-23 23:06:00,35.7,0.5,30.19,SW,227,0.0,0.0,22,0.00,,,0.00,Wunderground v.1.15,2013-03-24 06:06:00,
2013-03-23 23:11:00,35.5,0.3,30.19,WSW,246,0.0,0.0,22,0.00,,,0.00,Wunderground v.1.15,2013-03-24 06:11:00,
2013-03-23 23:17:00,34.7,0.6,30.20,WSW,248,0.0,0.0,23,0.00,,,0.00,Wunderground v.1.15,2013-03-24 06:17:00,
2013-03-23 23:23:00,34.6,1.4,30.20,WSW,249,0.0,0.0,24,0.00,,,0.00,Wunderground v.1.15,2013-03-24 06:23:00,
2013-03-23 23:28:00,34.2,0.2,30.20,West,259,0.0,0.0,23,0.00,,,0.00,Wunderground v.1.15,2013-03-24 06:28:00,
2013-03-23 23:34:00,33.6,0.6,30.20,West,260,0.0,0.0,24,0.00,,,0.00,Wunderground v.1.15,2013-03-24 06:34:00,
2013-03-23 23:40:00,34.1,1.0,30.20,West,264,0.0,0.0,24,0.00,,,0.00,Wunderground v.1.15,2013-03-24 06:40:00,
2013-03-23 23:46:00,34.8,1.6,30.20,West,263,0.0,0.0,24,0.00,,,0.00,Wunderground v.1.15,2013-03-24 06:46:00,
2013-03-23 23:51:00,34.9,1.7,30.20,West,264,0.0,0.0,24,0.00,,,0.00,Wunderground v.1.15,2013-03-24 06:51:00,
2013-03-23 23:57:00,35.1,0.9,30.21,NNE,25,0.0,2.0,23,0.00,,,0.00,Wunderground v.1.15,2013-03-24 06:57:00,